TAF and METAR

Decoding for American and Canadian METARs and TAFs is not fully implemented.

Could not understand the following METAR

KFRM 230856Z AUTO 26012KT 10SM FEW041 10/09 A2991 RMK AO2 SLP133 T01000089 53019
No TAF available for Fairmont Municipal Airport
Fairmont Municipal Airport in United States of America at 354m

Latest 5 airports